OV1-5 DEB, 5361

Orbit data source: Space-Track

OV1-5 DEB, 5361 is space debris in LEO originally from a launch on Wed, 30 Mar 1966 UTC launched from the Air Force Western Test Range (AFWTR). Debris objects in space refer to the collection of defunct objects orbiting the Earth. Examples of debris include non-operational satellites, rocket bodies, and fragments generated from explosions, collisions, or faulty payload assembly.

Loading next visibility...
Identifier
5361, 1966-025F
Orbit
LEO
Country
Flag of USUS
Related business
Flag of USAir Force Systems Command (OAR legacy assets) (US)
Manufacturer
Unknown
Mission
Spacecraft
Bus & Motor
Unknown
Mass
Unknown
Launch date (UTC)
1966-03-30 (60 years ago)
Launch vehicle
Unknown
Launch site
Air Force Western Test Range (AFWTR)
Object type
Payload
Rocket body
Debris
Shape & HBR
Unknown shape, 0.1 m
Radar Cross Section
Small (<0.1 m²)

Expand to show TLE details & history
Last TLE update: 1 day ago

TLE from 1 day ago
0 OV1-5 DEB
1 05361U 66025F   26134.92180533  .00005260  00000-0  10959-2 0  9990
2 05361 144.6104 136.4803 0022409 297.8142  62.0289 14.55851469363986
Epoch: 2026-05-14T22:07Z
TLE epoch observation values (Epoch: 2026-05-14T22:07:23.980Z)
Latitude
-0.00004°
Longitude
-68.0301°
Altitude
698.163 km
Speed
7.513 km/s
True Right ascension
09h 05m 55s
True Declination
0° 00' 00"
Sunlit
Object was in daylight at epoch
Visualization orbit readout
Latitude
Unknown
Longitude
Unknown
Altitude
Unknown
Speed
Unknown
Apparent Right ascension
Unknown
Apparent Declination
Unknown
Sunlit
N/A
Visualization observer readout
Local Sidereal Time
17:11:13
Azimuth
Unknown
Elevation
Unknown
Doppler factor
Unknown
Orbital elements
Apogee altitude
725.578 km
Perigee altitude
693.812 km
Semi-major axis
7,087.832 km
Eccentricity
0.00224
Inclination
144.6104°
RAAN
136.4803°
Arg. of periapsis
297.8142°
True anomaly
62.25599°
Mean anomaly
62.0289°
Eccentric anomaly
62.14241°
Mean motion
3.63725 °/min
Orbital period
98.98 mins
BSTAR
0.0010959
Loading maneuver chart data...
Computing Atmospheric mass density...
Loading historical data...
Loading historical data...
Loading historical data...
Loading historical data...
Loading historical data...
Loading historical data...
Loading historical data...

Documentation

Showing up to 5 results
|